Location: Gallegos de San Vicente
(40.7236°N, 4.6085°W)
Time: 06:26:45
(UTC+00:00)

Daily predictions for brighter satellites

Satellite Brightness Start Highest point End
(mag) Time Altitude Azimuth Time Altitude Azimuth Time Altitude Azimuth
Cosmos 614 Rocket 4.4 19:38:14 10° SSW 19:43:22 69° WNW 19:48:35 10° NNE
Meteor 1-27 Rocket 4.2 19:43:23 10° N 19:49:08 49° ENE 19:54:50 10° SSE
Cosmos 1818 4.0 19:45:32 10° NW 19:50:58 67° WSW 19:56:20 10° SSE
ARGOS 3.2 19:46:35 10° SSE 19:51:58 87° W 19:57:22 10° NNW
IRS-1A Rocket 4.4 19:46:55 10° SSE 19:52:33 69° ENE 19:58:21 10° N
NOSS 3-2 (A) 3.3 19:47:44 10° SSW 19:53:11 61° ESE 19:59:20 10° NE
Cosmos 1707 Rocket 3.9 19:50:58 10° N 19:55:08 44° ENE 19:59:16 10° SSE
Meteor 1-10 Rocket 4.3 19:50:19 10° N 19:56:05 89° ENE 20:01:56 10° S
CZ-2C R/B 2.7 19:51:30 10° NNE 19:56:37 56° E 20:01:47 10° S
SL-4 R/B 4.2 19:57:02 10° WNW 20:00:24 23° NNW 20:03:34 10° NE
USA 267 4.2 19:56:06 10° ENE 20:01:11 24° ESE 20:06:14 10° S
BREEZE-M DEB (TANK) 3.8 20:00:01 10° WNW 20:02:08 26° N 20:05:36 10° NE
Cosmos 2360 4.2 19:56:29 10° NNW 20:02:15 76° ENE 20:07:57 10° SSE
SL-16 R/B 3.9 19:58:39 10° N 20:02:28 18° NE 20:06:16 10° E
NOSS 3-2 (C) 3.6 19:58:44 10° S 20:03:58 43° ESE 20:09:47 10° NE
BREEZE-M DEB (TANK) 2.7 19:58:39 10° WNW 20:04:33 52° SW 20:07:03 11° SSE
Sich 1 3.1 20:01:24 10° S 20:05:50 88° W 20:10:17 10° N
Cosmos 2082 Rocket 2.4 20:02:54 10° SSW 20:08:37 81° WNW 20:14:19 10° NNE
MetOp-A 4.2 20:04:20 10° SSE 20:09:37 67° ENE 20:14:56 10° N
USA 186 2.0 20:08:50 10° S 20:10:59 43° W 20:13:09 10° NNW
Cosmos 2369 4.0 20:09:41 10° NNW 20:15:25 73° WSW 20:21:05 10° SSE
Cosmos 389 Rocket 4.1 20:14:05 10° NNW 20:17:18 36° W 20:20:31 10° SSW
H-2A R/B 3.5 20:13:19 10° SSW 20:18:00 36° W 20:22:37 10° NNW
Meteor 1-4 Rocket 2.5 20:15:40 10° N 20:19:05 57° E 20:21:51 15° SSE
Cosmos 2322 Rocket 3.8 20:15:46 10° N 20:19:54 20° NE 20:23:14 13° E
Cosmos 2278 3.7 20:15:57 10° NNW 20:21:42 85° ENE 20:27:03 12° SSE
ATLAS 5 CENTAUR R/B 4.4 20:17:44 10° WNW 20:22:38 25° WSW 20:28:02 10° SSW
Cosmos 1862 Rocket 4.0 20:18:42 10° N 20:22:56 43° ENE 20:25:58 17° SE
Cosmos 676 Rocket 4.1 20:18:51 10° SSW 20:24:10 87° WNW 20:29:33 10° NNE
USA 32 4.4 20:21:33 10° SSE 20:26:25 42° E 20:31:19 10° NNE
Genesis I 3.5 20:22:50 10° NW 20:26:41 62° WSW 20:29:42 15° SSE
USA 276 4.3 20:25:27 10° NW 20:27:52 20° NNE 20:30:10 11° ENE
X-37B 1.6 20:25:18 10° WNW 20:28:19 40° N 20:30:22 17° ENE
Cosmos 2360 Rocket 4.2 20:26:01 10° NNE 20:28:43 13° NE 20:31:25 10° ENE
ATLAS 3B R/B 3.5 20:24:04 10° SSE 20:29:09 24° ESE 20:34:14 10° ENE
Cosmos 1238 Rocket 3.0 20:30:32 27° ESE 20:30:50 28° E 20:33:26 10° NNE
Meteor 2-20 4.4 20:26:57 10° N 20:33:08 83° E 20:39:15 10° S
Cosmos 1934 Rocket 4.0 20:28:20 10° S 20:34:42 84° E 20:41:06 10° N
Resurs 01 Rocket 1.8 20:34:56 21° SE 20:37:42 55° ENE 20:42:03 10° N
CZ-2C R/B 3.6 20:33:37 10° NNE 20:38:11 83° ESE 20:42:39 10° SSW
Cosmos 1980 Rocket 2.3 20:32:46 10° NNW 20:38:26 79° WSW 20:43:06 15° SSE
Lacrosse 5 2.4 20:34:03 10° NW 20:38:57 47° NE 20:41:50 23° ESE
Cosmos 1602 4.4 20:37:46 26° SE 20:39:12 36° E 20:42:49 10° NNE
SPOT 3 Rocket 3.5 20:41:00 14° SSE 20:45:34 87° WSW 20:50:49 10° NNW
Cosmos 1933 Rocket 3.8 20:42:59 21° SSE 20:45:36 49° E 20:49:54 10° NNE
GP-B 3.3 20:42:07 10° NNE 20:46:27 51° E 20:48:37 27° SSE
Cosmos 1697 Rocket 4.2 20:45:36 10° NW 20:50:31 32° WSW 20:55:25 10° SSW
Cosmos 405 Rocket 2.5 20:50:04 26° S 20:51:57 65° E 20:55:41 10° NNE
Spot 2 Rocket 4.1 20:51:17 28° ESE 20:53:14 39° ENE 20:57:56 10° N
USA 238 DEB 4.3 20:47:12 10° SW 20:53:42 58° NW 21:00:29 10° NNE
USA 238 4.3 20:47:18 10° SW 20:53:48 59° NW 21:00:35 10° NNE
Meteor 1-20 Rocket 4.2 20:48:35 10° S 20:54:24 85° E 21:00:17 10° N
CENTAUR R/B 2.5 20:51:06 10° SW 20:56:51 85° WNW 21:03:44 10° NE
Cosmos 1741 Rocket 3.9 20:55:03 10° S 21:00:15 72° ESE 21:05:32 10° NNE
Okean 1-7 3.7 20:57:35 10° N 21:01:30 34° ENE 21:01:51 33° E
OBJECT-B 2.6 21:02:54 15° SSW 21:05:05 30° W 21:08:03 10° NNW
Cosmos 1437 Rocket 3.2 21:03:45 10° N 21:07:19 41° ENE 21:07:19 41° ENE
Cosmos 2084 Rocket 4.1 21:07:11 10° SW 21:11:16 54° NW 21:15:28 10° NNE
Cosmos 1763 Rocket 3.5 21:06:07 10° NNW 21:11:26 69° ENE 21:13:14 41° SE
Cosmos 1703 Rocket 3.7 21:07:39 10° N 21:11:53 50° E 21:12:20 48° ESE
H-2A R/B 3.3 21:08:47 10° NNE 21:12:56 87° ESE 21:14:44 33° SSW
Cosmos 2333 Rocket 4.3 21:10:37 10° NNE 21:13:11 13° NE 21:15:19 11° ENE
ATLAS 5 CENTAUR R/B 4.4 21:12:06 10° NNE 21:14:03 14° NE 21:14:58 13° ENE
Landsat 7 3.8 21:15:20 47° SE 21:16:31 65° ENE 21:21:15 10° N
SPOT 5 3.8 21:17:39 27° ENE 21:17:39 27° ENE 21:21:17 10° N
USA 245 4.5 21:14:57 33° SSE 21:17:59 74° ENE 21:24:03 10° N
Cosmos 921 Rocket 3.7 21:16:18 10° NNW 21:20:19 46° WSW 21:21:52 31° SSW
MetOp-B 4.1 21:22:15 36° S 21:24:31 80° WSW 21:29:55 10° NNW
Okean 1 3.5 21:27:15 10° NNW 21:31:17 67° W 21:31:49 59° SW
Lacrosse 4 Rocket 3.7 21:37:37 14° NE 21:37:37 14° NE 21:38:14 10° NE
Meteor 1-19 Rocket 4.1 21:30:10 10° NNW 21:35:38 81° W 21:37:21 46° S
SL-27 R/B 3.6 21:37:55 38° W 21:38:13 39° WNW 21:41:22 10° N
Cosmos 2100 Rocket 3.9 21:36:57 49° SSE 21:38:32 67° E 21:44:38 10° NNE
SL-4 R/B 4.4 21:38:38 10° NW 21:41:02 16° N 21:42:59 11° NE
Cosmos 2173 Rocket 3.9 21:41:11 52° SSE 21:42:31 67° E 21:48:35 10° NNE
Cosmos 2219 Rocket 3.9 21:39:28 10° N 21:43:23 19° NE 21:44:23 18° ENE
Meteor 2-4 Rocket 3.5 21:38:28 10° N 21:44:02 72° E 21:44:40 65° SE
Cosmos 540 Rocket 3.4 21:38:59 10° NNW 21:44:09 67° ENE 21:44:28 65° E
USA 267 3.2 21:38:06 10° NE 21:44:40 88° NW 21:51:13 10° SW
Cosmos 2242 Rocket 4.4 21:41:30 10° NNW 21:45:44 47° W 21:46:38 40° SW
SL-16 R/B 2.2 21:41:32 10° NNW 21:47:12 75° WSW 21:48:20 57° S
Cosmos 1725 Rocket 4.3 21:55:17 46° E 21:55:17 46° E 22:01:10 10° NNE
Cosmos 1459 Rocket 3.9 21:53:46 54° S 21:55:22 84° E 22:01:46 10° N
ERS-1 Rocket 2.8 21:56:14 83° E 21:56:18 83° ENE 22:01:20 10° NNW
Cosmos 1833 4.1 21:58:11 67° E 21:58:11 67° E 22:03:28 10° NNE
Cosmos 1500 4.4 22:00:27 39° NNW 22:00:27 39° NNW 22:03:03 10° N
Cosmos 2016 Rocket 3.9 22:02:20 64° ESE 22:02:45 66° E 22:09:03 10° NNE
Meteor 1-13 Rocket 4.2 21:58:03 10° N 22:03:23 64° ENE 22:03:23 64° ENE
Cosmos 2322 Rocket 2.3 21:58:48 10° NNW 22:04:28 66° WSW 22:05:03 62° SW
SPOT 1/Viking Rocket 4.0 22:04:10 50° SW 22:04:54 55° W 22:10:03 10° NNW
X-37B 3.5 22:01:55 10° WNW 22:02:37 16° WNW 22:02:37 16° WNW
Terra 2.2 22:06:49 56° NNE 22:06:49 56° NNE 22:10:48 10° N
Cosmos 2221 Rocket 4.5 22:02:23 10° N 22:05:37 42° NNE 22:05:37 42° NNE
Okean 3 4.4 22:05:34 10° N 22:08:39 46° N 22:08:39 46° N
Cosmos 841 Rocket 3.6 22:04:48 10° NNW 22:10:00 69° WSW 22:10:00 69° WSW
Cosmos 967 Rocket 4.3 22:04:43 10° NNW 22:11:06 84° WSW 22:11:40 75° S
Cosmos 2360 Rocket 2.1 22:07:59 10° NNW 22:13:33 78° NE 22:13:33 78° NE
Resurs 01 Rocket 4.2 22:12:31 10° WSW 22:14:31 13° W 22:16:39 10° WNW
CARTOSAT-1 4.4 22:17:38 47° WNW 22:17:38 47° WNW 22:21:03 10° NNW
Iridium 4 Rocket 4.1 22:18:30 41° NNW 22:18:30 41° NNW 22:21:18 10° N
Cosmos 1864 Rocket 4.4 22:17:15 71° E 22:17:15 71° E 22:23:22 10° NNE
Cosmos 2237 4.1 22:12:22 10° NNW 22:17:58 85° WNW 22:17:58 85° WNW
USA 234 3.7 22:16:21 41° ENE 22:18:07 51° NNE 22:24:25 10° NW
ATLAS 3B R/B 2.9 22:12:45 10° SW 22:19:16 63° NW 22:25:52 10° NNE
Cosmos 44 4.1 22:14:39 10° NW 22:19:01 47° W 22:19:01 47° W
Lacrosse 5 3.3 22:17:20 10° WNW 22:21:01 29° WSW 22:21:01 29° WSW
Cosmos 2233 Rocket 4.3 22:34:08 54° ENE 22:34:08 54° ENE 22:39:28 10° NNE
Cosmos 2061 Rocket 4.0 22:35:41 68° WSW 22:36:05 70° W 22:42:17 10° N
COSMOS 2428 3.6 22:35:01 10° N 22:39:48 41° NE 22:39:48 41° NE
Cosmos 2237 Rocket 4.0 22:40:29 10° N 22:44:29 19° NE 22:44:34 19° NE
Cosmos 839 Rocket 4.3 22:57:41 82° SSW 22:58:04 89° SE 23:06:58 10° NNE
Cosmos 2333 Rocket 2.7 22:52:43 10° NNW 22:57:19 56° N 22:57:19 56° N
Lacrosse 4 Rocket 3.9 23:13:52 20° NW 23:13:52 20° NW 23:16:21 10° N
Cosmos 2227 Rocket 4.3 23:22:00 16° NE 23:22:00 16° NE 23:23:21 10° NE
Cosmos 2219 Rocket 3.2 23:22:15 10° NNW 23:26:05 44° NW 23:26:05 44° NW
BREEZE-M DEB (TANK) 4.5 23:31:36 82° NNE 23:31:36 82° NNE 23:49:30 10° NE
